When you browse on this site, cookies collect data to enhance your experience and personalize the content and advertising you see.
Visit our Privacy Policy to learn more. By continuing to use the site, you agree to this use of cookies and data.
  • In Hungary
  • List of Countries
  • For 7 days
  • Water Temperature
  • Weather Map
  • News
  • Weather Widgets
  • user-avatar
    Login

    Hourly Weather Kraszow

    Today, 7 December, Saturday

    Time Temperature Precipitation Wind Pressure Humidity
    00:00 -2°C° 0 mm 6 mps 739 mmHg 52%
    01:00 -1°C° 0 mm 5 mps 738 mmHg 55%
    02:00 -1°C° 0 mm 6 mps 738 mmHg 56%
    03:00 -1°C° 0 mm 6 mps 737 mmHg 57%
    04:00 +1°C° 0 mm 6 mps 737 mmHg 58%
    05:00 +1°C° 0.2 mm 6 mps 737 mmHg 66%
    06:00 +2°C° 0.2 mm 6 mps 737 mmHg 75%
    07:00 +2°C° 0 mm 6 mps 737 mmHg 81%
    08:00 +2°C° 0.1 mm 7 mps 737 mmHg 79%
    09:00 +3°C° 0.1 mm 7 mps 737 mmHg 77%
    10:00 +4°C° 0.1 mm 8 mps 737 mmHg 74%
    11:00 +4°C° 0.1 mm 7 mps 737 mmHg 76%
    12:00 +5°C° 0.1 mm 7 mps 737 mmHg 79%
    13:00 +5°C° 0.1 mm 7 mps 737 mmHg 81%
    14:00 +5°C° 0.1 mm 7 mps 737 mmHg 81%
    15:00 +5°C° 0.1 mm 7 mps 737 mmHg 81%
    16:00 +5°C° 0.1 mm 7 mps 738 mmHg 81%
    17:00 +5°C° 0.1 mm 7 mps 738 mmHg 82%
    18:00 +5°C° 0.1 mm 7 mps 739 mmHg 82%
    19:00 +5°C° 0.1 mm 7 mps 739 mmHg 82%
    20:00 +5°C° 0.2 mm 7 mps 739 mmHg 83%
    21:00 +5°C° 0.2 mm 7 mps 739 mmHg 83%
    22:00 +5°C° 0.2 mm 7 mps 740 mmHg 84%
    23:00 +4°C° 0.1 mm 7 mps 740 mmHg 84%

    Tomorrow, 8 December, Sunday

    Time Temperature Precipitation Wind Pressure Humidity
    00:00 +4°C° 0.1 mm 6 mps 740 mmHg 84%
    01:00 +4°C° 0.1 mm 6 mps 741 mmHg 83%
    02:00 +5°C° 0 mm 5 mps 740 mmHg 84%
    03:00 +3°C° 0 mm 5 mps 740 mmHg 84%
    04:00 +3°C° 0 mm 5 mps 739 mmHg 84%
    05:00 +3°C° 0 mm 5 mps 740 mmHg 83%
    06:00 +3°C° 0 mm 5 mps 740 mmHg 82%
    07:00 +3°C° 0 mm 5 mps 740 mmHg 81%
    08:00 +3°C° 0 mm 5 mps 740 mmHg 79%
    09:00 +4°C° 0 mm 6 mps 739 mmHg 77%
    10:00 +4°C° 0 mm 6 mps 739 mmHg 74%
    11:00 +5°C° 0 mm 7 mps 738 mmHg 72%
    12:00 +5°C° 0 mm 7 mps 737 mmHg 69%
    13:00 +5°C° 0 mm 7 mps 736 mmHg 67%
    14:00 +5°C° 0 mm 7 mps 736 mmHg 68%
    15:00 +5°C° 0 mm 7 mps 735 mmHg 69%
    16:00 +5°C° 0 mm 7 mps 735 mmHg 70%
    17:00 +5°C° 0.3 mm 7 mps 735 mmHg 74%
    18:00 +5°C° 0.3 mm 7 mps 734 mmHg 77%
    19:00 +5°C° 0.3 mm 7 mps 734 mmHg 81%
    20:00 +6°C° 0.4 mm 7 mps 734 mmHg 80%
    21:00 +6°C° 0.4 mm 7 mps 734 mmHg 80%
    22:00 +6°C° 0.4 mm 7 mps 734 mmHg 79%
    23:00 +6°C° 0 mm 7 mps 733 mmHg 80%

    Day after tomorrow, 9 December, Monday

    Time Temperature Precipitation Wind Pressure Humidity
    00:00 +6°C° 0 mm 7 mps 733 mmHg 80%
    01:00 +7°C° 0 mm 6 mps 733 mmHg 80%
    02:00 +7°C° 0.7 mm 6 mps 732 mmHg 82%
    03:00 +7°C° 0.7 mm 5 mps 732 mmHg 83%
    04:00 +7°C° 0.7 mm 5 mps 731 mmHg 85%
    05:00 +7°C° 0.8 mm 5 mps 731 mmHg 84%
    06:00 +7°C° 0.8 mm 5 mps 732 mmHg 83%
    07:00 +7°C° 0.8 mm 5 mps 732 mmHg 83%
    08:00 +7°C° 0 mm 5 mps 732 mmHg 78%
    09:00 +7°C° 0 mm 5 mps 732 mmHg 72%
    10:00 +7°C° 0 mm 5 mps 732 mmHg 67%
    11:00 +7°C° 0 mm 6 mps 732 mmHg 64%
    12:00 +7°C° 0 mm 6 mps 732 mmHg 61%
    13:00 +6°C° 0 mm 7 mps 732 mmHg 58%
    14:00 +6°C° 0 mm 7 mps 732 mmHg 60%
    15:00 +5°C° 0 mm 7 mps 732 mmHg 63%
    16:00 +5°C° 0 mm 7 mps 731 mmHg 66%
    17:00 +5°C° 0 mm 7 mps 732 mmHg 68%
    18:00 +4°C° 0 mm 7 mps 732 mmHg 69%
    19:00 +4°C° 0 mm 7 mps 732 mmHg 71%
    20:00 +4°C° 0 mm 7 mps 732 mmHg 73%
    21:00 +3°C° 0 mm 7 mps 732 mmHg 75%
    22:00 +3°C° 0 mm 6 mps 732 mmHg 76%
    23:00 +3°C° 0 mm 7 mps 733 mmHg 76%

    10 December, Tuesday

    Time Temperature Precipitation Wind Pressure Humidity
    00:00 +3°C° 0 mm 7 mps 733 mmHg 75%
    01:00 +2°C° 0 mm 7 mps 733 mmHg 75%
    02:00 +3°C° 0.1 mm 7 mps 734 mmHg 77%
    03:00 +3°C° 0.1 mm 7 mps 735 mmHg 80%
    04:00 +3°C° 0.1 mm 7 mps 736 mmHg 82%
    05:00 +2°C° 0.1 mm 7 mps 736 mmHg 78%
    06:00 0°C° 0.1 mm 7 mps 737 mmHg 73%
    07:00 -1°C° 0.1 mm 6 mps 738 mmHg 69%
    08:00 +1°C° 0 mm 6 mps 739 mmHg 74%
    09:00 +1°C° 0 mm 6 mps 740 mmHg 79%
    10:00 +1°C° 0 mm 6 mps 741 mmHg 84%
    11:00 +1°C° 0.1 mm 6 mps 742 mmHg 86%
    12:00 +1°C° 0.1 mm 6 mps 743 mmHg 88%
    13:00 +2°C° 0.1 mm 6 mps 743 mmHg 89%
    14:00 +1°C° 0.2 mm 6 mps 744 mmHg 88%
    15:00 +1°C° 0.2 mm 6 mps 745 mmHg 86%
    16:00 -1°C° 0.2 mm 6 mps 746 mmHg 85%
    17:00 -1°C° 0 mm 6 mps 747 mmHg 82%
    18:00 0°C° 0 mm 5 mps 747 mmHg 79%
    19:00 0°C° 0 mm 4 mps 748 mmHg 76%
    20:00 0°C° 0 mm 3 mps 748 mmHg 77%
    21:00 0°C° 0 mm 3 mps 749 mmHg 79%
    22:00 -1°C° 0 mm 2 mps 749 mmHg 81%
    23:00 -1°C° 0 mm 2 mps 749 mmHg 82%

    11 December, Wednesday

    Time Temperature Precipitation Wind Pressure Humidity
    00:00 +1°C° 0 mm 1 mps 749 mmHg 83%
    01:00 0°C° 0 mm 1 mps 749 mmHg 84%
    02:00 0°C° 0 mm 1 mps 748 mmHg 84%
    03:00 -2°C° 0 mm 2 mps 748 mmHg 84%
    04:00 -2°C° 0 mm 2 mps 747 mmHg 83%
    05:00 -2°C° 0 mm 3 mps 747 mmHg 82%
    06:00 -3°C° 0 mm 4 mps 747 mmHg 80%
    07:00 -3°C° 0 mm 4 mps 746 mmHg 79%
    08:00 -2°C° 0 mm 5 mps 746 mmHg 76%
    09:00 -2°C° 0 mm 5 mps 746 mmHg 74%
    10:00 -2°C° 0 mm 6 mps 745 mmHg 72%
    11:00 -1°C° 0 mm 6 mps 745 mmHg 70%
    12:00 0°C° 0 mm 5 mps 744 mmHg 68%
    13:00 +1°C° 0 mm 5 mps 743 mmHg 65%
    14:00 0°C° 0 mm 5 mps 743 mmHg 68%
    15:00 -1°C° 0 mm 4 mps 743 mmHg 71%
    16:00 0°C° 0 mm 3 mps 742 mmHg 74%
    17:00 0°C° 0 mm 3 mps 742 mmHg 73%
    18:00 -1°C° 0 mm 3 mps 742 mmHg 72%
    19:00 -1°C° 0 mm 3 mps 742 mmHg 71%
    20:00 -1°C° 0 mm 3 mps 741 mmHg 72%
    21:00 -1°C° 0 mm 3 mps 741 mmHg 73%
    22:00 -1°C° 0 mm 3 mps 741 mmHg 73%
    23:00 -1°C° 0 mm 3 mps 741 mmHg 74%

    12 December, Thursday

    Time Temperature Precipitation Wind Pressure Humidity
    00:00 -2°C° 0 mm 4 mps 740 mmHg 75%
    01:00 -2°C° 0 mm 4 mps 740 mmHg 76%
    02:00 -2°C° 0 mm 4 mps 739 mmHg 77%
    03:00 -2°C° 0 mm 4 mps 739 mmHg 78%
    04:00 -2°C° 0 mm 4 mps 739 mmHg 79%
    05:00 -2°C° 0 mm 4 mps 739 mmHg 83%
    06:00 -1°C° 0 mm 3 mps 739 mmHg 87%
    07:00 -1°C° 0 mm 3 mps 739 mmHg 91%
    08:00 -1°C° 0 mm 3 mps 739 mmHg 91%
    09:00 -1°C° 0 mm 3 mps 739 mmHg 91%
    10:00 0°C° 0 mm 3 mps 739 mmHg 91%
    11:00 0°C° 0 mm 3 mps 739 mmHg 91%
    12:00 +1°C° 0 mm 2 mps 739 mmHg 90%
    13:00 +2°C° 0 mm 2 mps 739 mmHg 89%
    14:00 +1°C° 0 mm 2 mps 739 mmHg 91%
    15:00 +1°C° 0 mm 2 mps 739 mmHg 93%
    16:00 +1°C° 0 mm 2 mps 739 mmHg 95%
    17:00 +1°C° 0 mm 2 mps 739 mmHg 95%
    18:00 +1°C° 0 mm 2 mps 739 mmHg 95%
    19:00 -1°C° 0 mm 2 mps 739 mmHg 95%
    20:00 -1°C° 0 mm 2 mps 739 mmHg 94%
    21:00 -1°C° 0 mm 2 mps 739 mmHg 93%
    22:00 -1°C° 0 mm 2 mps 739 mmHg 92%
    23:00 -1°C° 0 mm 2 mps 738 mmHg 92%
    Show more